Tracking 31028 objects as of 17-Jul-2025
HD Live streaming from Space Station
objects crossing your sky now

STARLINK-31282

Track STARLINK-31282 now!
10-day predictions
STARLINK-31282 is classified as:


NORAD ID: 59307
Int'l Code: 2024-056M
Perigee: 489.4 km
Apogee: 491.0 km
Inclination: 43.0 °
Period: 94.3 minutes
Semi major axis: 6861 km
RCS: Unknown
Launch date: March 24, 2024
Source: United States (US)
Launch site: AIR FORCE EASTERN TEST RANGE (AFETR)
Your satellite tracking list
Your tracking list is empty




NASA's NSSDC Master Catalog

Two Line Element Set (TLE):
1 59307U 24056M   25198.17557562 -.00000059  00000-0  73816-5 0  9999
2 59307  43.0044 120.9236 0001142 266.7778  93.2943 15.27565467 75139
Source of the keplerian elements: AFSPC